Tracking 29892 objects as of 21-Nov-2024
HD Live streaming from Space Station
objects crossing your sky now

COSMOS 1275 DEB

Track COSMOS 1275 DEB now!
10-day predictions


NORAD ID: 42193
Int'l Code: 1981-053TH
Perigee: 918.0 km
Apogee: 1,118.0 km
Inclination: 83.0 °
Period: 105.4 minutes
Semi major axis: 7389 km
RCS: Unknown
Launch date: June 4, 1981
Source: Commonwealth of Independent States (former USSR) (CIS)
Launch site: PLESETSK MISSILE AND SPACE COMPLEX (PKMTR)

Note: This is SATELLITE DEBRIS
Your satellite tracking list
Your tracking list is empty




NASA's NSSDC Master Catalog

Two Line Element Set (TLE):
1 42193U 81053TH  24324.34473397  .00000917  00000-0  10147-2 0  9993
2 42193  82.9543 294.4172 0135327 104.6596 256.9602 13.66853075536191
Source of the keplerian elements: AFSPC